Regional Weather Roundup
Issued by NWS

Home | Current Version | Previous Version | Text Only | Print | Product List | Glossary Off
Versions: 1 2 3 4 5 6 7 8 9 10 11 12 13 14 15 16 17 18 19 20 21 22 23 24 25 26 27 28 29 30 31 32 33 34 35 36 37 38 39 40 41 42 43 44 45 46 47 48 49 50

000
ASUS43 KMKX 291510
RWRWI

WISCONSIN REGIONAL WEATHER ROUNDUP
NATIONAL WEATHER SERVICE MILWAUKEE/SULLIVAN WI
900 AM CST THU JAN 29 2015

NOTE: "FAIR" INDICATES FEW OR NO CLOUDS BELOW 12,000 FEET WITH NO
SIGNIFICANT WEATHER AND/OR OBSTRUCTIONS TO VISIBILITY.

WIZ001-002-006>008-014>016-023>028-291600-
NORTHWEST WISCONSIN

CITY           SKY/WX    TMP DP  RH WIND       PRES   REMARKS
SUPERIOR ARPT  PTSUNNY   29  21  73 N13G22    30.10R WCI  19
ASHLAND        CLOUDY    30  23  75 NW15      30.04R WCI  19
HAYWARD        CLOUDY    30  22  72 N8G20     30.03R WCI  22
SIREN          CLOUDY    30  22  72 N14G24    30.09R WCI  20
CUMBERLAND     CLOUDY    30  25  80 NW15      30.04R WCI  19
RICE LAKE      CLOUDY    31  24  75 NW13G22   30.05R WCI  21
CHETEK         CLOUDY    31  25  77 NW9G22    30.04R WCI  23
LADYSMITH      CLOUDY    31  25  79 NW17G24   30.01R WCI  19
EAU CLAIRE     CLOUDY    32  25  75 NW13G24   30.03R WCI  22
MENOMONIE      CLOUDY    33  27  79 W9G24     30.05R WCI  25
NEW RICHMOND   CLOUDY    31  28  88 NW14G20   30.09R WCI  21
OSCEOLA        CLOUDY    32  28  86 NW15G22   30.13R WCI  22
$$

WIZ003>005-009-010-017-018-291600-
NORTH CENTRAL WISCONSIN

CITY           SKY/WX    TMP DP  RH WIND       PRES   REMARKS
MANITOWISH WTR CLOUDY    27  24  89 NW14G26   29.91R WCI  15
ARBOR VITAE    CLOUDY    29  25  85 NW14G22   29.91R WCI  19
WOODRUFF       CLOUDY    29  25  85 NW14G22   29.91R WCI  19
RHINELANDER    CLOUDY    27  22  81 NW14G30   29.89R WCI  16
EAGLE RIVER    CLOUDY    27  22  79 NW15G22   29.88R WCI  16
LAND O LAKES   CLOUDY    28  24  86 NW12G20   29.89R WCI  18
PHILLIPS       CLOUDY    28  23  83 NW13G25   29.94R WCI  17
TOMAHAWK       CLOUDY    28  22  78 NW16G29   29.92R WCI  16
MEDFORD        CLOUDY    28  24  84 NW17G25   29.93R WCI  16
MERRILL        CLOUDY    30  24  78 N17       29.91R WCI  18
$$

WIZ029-030-035-036-043>047-291600-
CENTRAL WISCONSIN

CITY           SKY/WX    TMP DP  RH WIND       PRES   REMARKS
WAUSAU         CLOUDY    30  25  81 NW12G28   29.89R WCI  20
MOSINEE        NOT AVBL
MARSHFIELD     CLOUDY    30  26  85 NW17      29.93R WCI  18
STEVENS POINT  CLOUDY    28  25  87 NW8       29.91R FOG     WCI  20
WAUPACA        CLOUDY    32  27  79 NW12G22   29.90R WCI  23
WAUTOMA        CLOUDY    31  27  85 NW14G22   29.92R WCI  21
WISC RAPIDS    CLOUDY    30  25  81 NW13      29.94R WCI  20
CAMP DOUGLAS   FRZ DRZL  32  32 100 NW10      29.96R FOG     WCI  24
$$

WIZ011>013-019>022-031-037>040-048>050-291600-
NORTHEAST WISCONSIN

CITY           SKY/WX    TMP DP  RH WIND       PRES   REMARKS
ANTIGO         CLOUDY    28  24  87 N20G25    29.86R WCI  14
SHAWANO        CLOUDY    32  27  80 NW8       29.88R WCI  25
OCONTO         CLOUDY    31  26  83 MISG      29.85R
STURGEON BAY   CLOUDY    28  25  86 NW16      29.84R WCI  17
GREEN BAY      CLOUDY    31  25  78 NW15      29.86R HAZE    WCI  20
MANITOWOC      CLOUDY    31  27  85 NW14      29.84R WCI  21
APPLETON       CLOUDY    30  25  80 NW14G24   29.87R WCI  20
CLINTONVILLE   CLOUDY    32  27  80 NW9G16    29.88R WCI  24
OSHKOSH        CLOUDY    31  25  78 NW14      29.88R HAZE    WCI  21
$$

WIZ032>034-041-042-053>061-291600-
SOUTHWEST WISCONSIN

CITY           SKY/WX    TMP DP  RH WIND       PRES   REMARKS
LA CROSSE      LGT RAIN  35  30  82 NW18G24   30.02R WCI  24
SPARTA         CLOUDY    32  28  86 NW13G28   30.00R WCI  22
VIROQUA        CLOUDY    32  32 100 NW20G28   29.97R WCI  20
BOSCOBEL       CLOUDY    35  28  75 NW12G18   30.00R WCI  27
PRAIRIE DU CHI CLOUDY    34  29  82 NW12G20   30.01R HAZE    WCI  25
PLATTEVILLE    CLOUDY    32  29  88 NW17      29.95R WCI  21
$$

WIZ056-057-062-063-064-067-068-291600-
SOUTH CENTRAL WISCONSIN

CITY           SKY/WX    TMP DP  RH WIND       PRES   REMARKS
REEDSBURG      CLOUDY    31  28  87 NW14G24   29.95R FOG     WCI  21
BARABOO/DELLS  CLOUDY    30  27  86 NW16G23   29.93R FOG     WCI  19
LONE ROCK      CLOUDY    33  27  78 NW12      29.97R WCI  24
MINERAL POINT  CLOUDY    32  30  93 NW15G23   29.94R WCI  22
MADISON        CLOUDY    31  25  78 NW13G24   29.91R WCI  21
MIDDLETON      CLOUDY    32  27  82 N18G24    29.92R WCI  21
WATERTOWN      CLOUDY    30  27  89 NW12      29.87R WCI  21
MONROE         CLOUDY    32  28  86 NW12G23   29.90R WCI  23
JANESVILLE     CLOUDY    34  28  80 NW18      29.89R WCI  23
$$

WIZ051-052-058>065-066-070>072-291600-
SOUTHEAST WISCONSIN

CITY           SKY/WX    TMP DP  RH WIND       PRES   REMARKS
MILWAUKEE      LGT SNOW  32  25  75 N13G24    29.84R WCI  22
WAUKESHA       CLOUDY    28  27  93 NW16      29.85R WCI  17
MILWAUKEE/TIMM LGT SNOW  30  27  86 NW13G21   29.84R WCI  20
RACINE         CLOUDY    33  25  72 NW16G23   29.84R HAZE    WCI  23
BURLINGTON     LGT SNOW  30  26  86 NW13G18   29.86R WCI  20
KENOSHA        CLOUDY    33  26  75 NW17G26   29.83R HAZE    WCI  22
FOND DU LAC    CLOUDY    31  25  78 NW18G25   29.87R WCI  19
SHEBOYGAN      CLOUDY    30  25  81 NW16G22   29.84R HAZE    WCI  19
WEST BEND      CLOUDY    30  27  86 NW16G23   29.85R WCI  19
JUNEAU         CLOUDY    30  26  83 NW14G20   29.88R WCI  20
$$

LSZ147-162-291600-
LAKE SUPERIOR

STATION/POSITION TIME  TEMP    WIND        PRES    WAVE
                       AIR SEA DIR/SP/G            HT/PER
                 (UTC) (F)     (DEG/KT/KT) (MB)    (FT/S)
DEVILS ISLAND    1500   27     320/ 28/ 31 1018.0R
PORT WING        1440   29     330/ 25/ 29 1018.3R
SAXON HARBOR     1440   31     320/ 20/ 24 1015.9R
$$

LMZ867-665-643>646-291600-
LAKE MICHIGAN

STATION/POSITION TIME  TEMP    WIND        PRES    WAVE
                       AIR SEA DIR/SP/G            HT/PER
                 (UTC) (F)     (DEG/KT/KT) (MB)    (FT/S)
NORTHPORT PIER   1400   29     310/ 12/ 15 1009.1R
SISTER BAY       1413   29     340/  9/ 10   N/A
KEWAUNEE LAKESHO 1400   30     320/  9/ 14 1008.7R
SHEBOYGAN LAKESH 1500   31     320/ 15/ 19 1011.3R
PORT WASHINGTON  1400   32     320/ 11/ 18 1010.5
MILWAUKEE LAKESH 1400   33     330/ 13/ 20   N/A
KENOSHA   LAKESH 1500   33     320/ 18/ 23 1009.8R
$$

TC  - TEMPERATURE IN CELSIUS
VSB - VISIBILITY IN STATUTE MILES
WCI - WIND CHILL INDEX
HX  - HEAT INDEX




USA.gov is the U.S. government's official web portal to all federal, state and local government web resources and services.